period_start,C,m1,H,J0,J1,J2,J3,J4,J5,JA,JB,JC,JD,JJ,JK,JN,#
2014-03-24 00:00:36,0.09,1.20,0.00,25.35,30.57,33.34,5.88,31.54,1013.22,2026.14,2967.17,2959.09,3220.97,350.25,320.57,12.22,0000 0000 0000 0000 000000
2014-03-24 00:01:37,0.11,1.20,0.00,25.37,30.57,33.35,5.92,31.54,1013.23,2026.28,2967.07,2959.05,3220.96,349.47,320.10,12.23,0000 0000 0000 0000 000000
2014-03-24 00:02:37,0.11,1.20,0.00,25.37,30.57,33.32,5.99,31.38,1013.22,2026.27,2967.02,2959.02,3220.85,350.44,320.72,12.23,0000 0000 0000 0000 000000
2014-03-24 00:03:37,0.05,1.20,0.00,25.37,30.57,33.34,5.94,31.38,1013.24,2026.18,2967.00,2959.00,3220.49,349.93,320.27,12.24,0000 0000 0000 0000 000000
2014-03-24 00:04:37,-0.01,1.20,0.00,25.37,30.57,33.35,5.87,31.50,1013.24,2026.11,2967.00,2958.99,3220.21,349.69,320.04,12.24,0000 0000 0000 0000 000000
2014-03-24 00:05:37,-0.01,1.20,0.00,25.37,30.57,33.35,5.97,31.08,1013.23,2026.15,2966.99,2958.98,3220.09,350.20,320.66,12.25,0000 0000 0000 0000 000000
2014-03-24 00:06:38,0.05,1.20,0.00,25.37,30.57,33.32,5.94,31.50,1013.31,2026.15,2966.75,2958.94,3220.04,350.04,320.44,12.25,0000 0000 0000 0000 000000
2014-03-24 00:07:38,0.04,1.21,0.00,25.37,30.57,33.32,5.78,31.58,1013.40,2026.15,2966.78,2958.93,3220.01,349.79,320.13,12.26,0000 0000 0000 0000 000000
2014-03-24 00:08:38,0.02,1.21,0.00,25.37,30.57,33.32,5.92,31.38,1013.33,2026.11,2966.43,2958.61,3220.00,348.51,318.99,12.27,0000 0000 0000 0000 000000
2014-03-24 00:09:39,0.11,1.21,0.00,25.38,30.57,33.35,6.07,31.54,1013.27,2026.17,2966.15,2958.27,3219.99,349.38,319.76,12.27,0000 0000 0000 0000 000000
2014-03-24 00:10:39,0.14,1.21,0.00,25.39,30.57,33.35,6.00,31.50,1013.24,2026.20,2966.05,2958.10,3219.93,350.53,320.78,12.28,0000 0000 0000 0000 000000
2014-03-24 00:11:39,0.09,1.21,0.00,25.40,30.57,33.33,5.87,31.58,1013.24,2026.19,2966.01,2958.07,3219.89,350.22,320.50,12.28,0000 0000 0000 0000 000000
2014-03-24 00:12:40,-0.02,1.21,0.00,25.40,30.57,33.34,5.94,31.46,1013.23,2026.11,2966.00,2958.06,3219.63,350.27,320.54,12.29,0000 0000 0000 0000 000000
2014-03-24 00:13:40,0.03,1.21,0.00,25.40,30.57,33.34,5.89,31.54,1013.22,2026.11,2966.00,2958.03,3219.27,350.02,320.31,12.30,0000 0000 0000 0000 000000
2014-03-24 00:14:40,0.02,1.21,0.00,25.40,30.57,33.34,5.93,31.58,1013.21,2026.07,2966.00,2958.01,3219.10,349.65,319.71,12.30,0000 0000 0000 0000 000000
2014-03-24 00:15:41,0.01,1.21,0.00,25.40,30.57,33.33,6.00,31.33,1013.24,2026.06,2965.99,2958.00,3219.03,350.81,321.06,12.31,0000 0000 0000 0000 000000
2014-03-24 00:16:41,-0.00,1.21,0.00,25.40,30.57,33.35,5.95,31.50,1013.24,2026.03,2965.95,2958.00,3219.01,349.88,320.40,12.31,0000 0000 0000 0000 000000
2014-03-24 00:17:41,-0.00,1.21,0.00,25.40,30.57,33.34,6.08,31.67,1013.25,2026.02,2965.81,2957.98,3218.99,350.02,320.31,12.32,0000 0000 0000 0000 000000
2014-03-24 00:18:41,0.03,1.21,0.00,25.41,30.57,33.34,5.97,31.67,1013.24,2026.02,2965.39,2957.95,3218.98,350.38,320.67,12.32,0000 0000 0000 0000 000000
2014-03-24 00:19:42,0.06,1.21,0.00,25.41,30.57,33.33,5.82,31.42,1013.22,2026.05,2965.13,2957.82,3218.98,349.25,319.89,12.33,0000 0000 0000 0000 000000
2014-03-24 00:20:42,0.10,1.21,0.00,25.40,30.57,33.35,5.92,31.46,1013.26,2026.07,2965.04,2957.53,3218.95,349.76,320.14,12.34,0000 0000 0000 0000 000000
2014-03-24 00:21:42,0.10,1.21,0.00,25.40,30.57,33.34,5.86,31.42,1013.29,2026.08,2965.01,2957.24,3218.87,349.48,320.07,12.34,0000 0000 0000 0000 000000
2014-03-24 00:22:42,0.09,1.21,0.00,25.40,30.57,33.31,5.83,31.38,1013.35,2026.08,2964.97,2957.11,3218.62,349.56,319.93,12.35,0000 0000 0000 0000 000000
2014-03-24 00:23:43,0.06,1.21,0.00,25.40,30.57,33.35,6.02,31.58,1013.32,2026.06,2964.88,2957.04,3218.29,350.01,320.66,12.35,0000 0000 0000 0000 000000
2014-03-24 00:24:43,0.06,1.21,0.00,25.40,30.57,33.34,5.83,31.33,1013.29,2026.08,2964.45,2957.01,3218.14,348.76,319.03,12.36,0000 0000 0000 0000 000000
2014-03-24 00:25:43,0.12,1.21,0.00,25.40,30.57,33.32,5.95,31.21,1013.32,2026.08,2964.21,2957.00,3218.07,350.52,320.50,12.37,0000 0000 0000 0000 000000
2014-03-24 00:26:43,0.03,1.21,0.00,25.40,30.57,33.32,6.07,31.54,1013.40,2026.07,2964.07,2956.99,3218.02,349.86,320.25,12.37,0000 0000 0000 0000 000000
2014-03-24 00:27:44,0.03,1.21,0.00,25.40,30.57,33.34,6.06,31.46,1013.38,2026.10,2964.02,2956.99,3218.00,350.00,320.33,12.38,0000 0000 0000 0000 000000
2014-03-24 00:28:44,0.02,1.21,0.00,25.42,30.57,33.34,5.78,31.25,1013.38,2026.16,2964.00,2956.97,3218.00,349.23,319.62,12.38,0000 0000 0000 0000 000000
2014-03-24 00:29:44,0.03,1.21,0.00,25.42,30.57,33.32,5.88,31.29,1013.39,2026.09,2963.83,2956.75,3217.97,350.19,320.50,12.39,0000 0000 0000 0000 000000
2014-03-24 00:30:45,0.07,1.21,0.00,25.42,30.57,33.30,6.03,31.50,1013.47,2026.04,2963.47,2956.36,3217.82,350.16,320.48,12.40,0000 0000 0000 0000 000000
2014-03-24 00:31:45,0.13,1.21,0.00,25.44,30.57,33.31,5.92,31.29,1013.45,2026.03,2963.18,2956.16,3217.45,349.35,319.73,12.40,0000 0000 0000 0000 000000
2014-03-24 00:32:45,0.11,1.21,0.00,25.45,30.57,33.33,6.03,31.58,1013.49,2026.03,2963.07,2956.08,3217.21,349.65,319.74,12.41,0000 0000 0000 0000 000000
2014-03-24 00:33:46,0.06,1.21,0.00,25.45,30.57,33.33,5.92,31.46,1013.55,2026.01,2963.02,2956.03,3217.08,349.97,320.51,12.41,0000 0000 0000 0000 000000
2014-03-24 00:34:46,0.03,1.21,0.00,25.45,30.57,33.33,5.91,31.42,1013.56,2026.01,2963.00,2956.01,3217.04,349.25,319.80,12.42,0000 0000 0000 0000 000000
2014-03-24 00:35:46,0.01,1.21,0.00,25.45,30.57,33.35,6.04,31.42,1013.61,2026.03,2963.00,2956.00,3217.01,350.58,320.79,12.42,0000 0000 0000 0000 000000
2014-03-24 00:36:47,0.01,1.22,0.00,25.45,30.57,33.36,6.13,31.38,1013.58,2026.02,2963.00,2956.00,3217.00,350.65,320.95,12.43,0000 0000 0000 0000 000000
2014-03-24 00:37:47,-0.00,1.21,0.00,25.45,30.57,33.36,6.07,31.58,1013.58,2026.00,2963.00,2956.00,3217.00,350.56,320.87,12.44,0000 0000 0000 0000 000000
2014-03-24 00:38:47,-0.00,1.21,0.00,25.45,30.57,33.34,6.00,31.38,1013.54,2026.01,2962.89,2955.96,3216.94,350.27,320.67,12.44,0000 0000 0000 0000 000000
2014-03-24 00:39:47,0.05,1.22,0.00,25.45,30.57,33.36,6.16,31.38,1013.51,2026.00,2962.41,2955.77,3216.71,349.15,319.55,12.45,0000 0000 0000 0000 000000
2014-03-24 00:40:48,0.15,1.22,0.00,25.45,30.57,33.35,5.87,31.42,1013.54,2026.01,2962.15,2955.46,3216.43,349.95,320.20,12.45,0000 0000 0000 0000 000000
2014-03-24 00:41:48,0.16,1.22,0.00,25.45,30.58,33.34,6.07,31.38,1013.55,2026.03,2962.05,2955.26,3216.24,350.44,320.79,12.46,0000 0000 0000 0000 000000
2014-03-24 00:42:48,0.10,1.22,0.00,25.45,30.58,33.34,5.83,31.58,1013.51,2026.02,2962.01,2955.13,3216.10,350.22,320.53,12.47,0000 0000 0000 0000 000000
2014-03-24 00:43:49,0.05,1.22,0.00,25.45,30.58,33.36,5.93,31.58,1013.52,2026.02,2961.97,2955.05,3216.04,350.13,320.45,12.47,0000 0000 0000 0000 000000
2014-03-24 00:44:49,0.02,1.22,0.00,25.45,30.59,33.37,5.87,31.46,1013.43,2026.02,2961.97,2955.01,3216.03,349.57,319.92,12.48,0000 0000 0000 0000 000000
2014-03-24 00:45:49,0.02,1.22,0.00,25.45,30.59,33.37,5.96,31.50,1013.33,2026.02,2961.83,2955.00,3216.00,350.00,320.00,12.48,0000 0000 0000 0000 000000
2014-03-24 00:46:49,0.00,1.22,0.00,25.45,30.59,33.36,6.12,31.50,1013.37,2026.01,2961.70,2955.00,3216.00,350.27,320.37,12.49,0000 0000 0000 0000 000000
2014-03-24 00:47:49,0.04,1.22,0.00,25.45,30.60,33.36,5.90,31.42,1013.34,2026.01,2961.29,2955.00,3216.00,349.60,319.90,12.50,0000 0000 0000 0000 000000
2014-03-24 00:48:50,0.05,1.22,0.00,25.47,30.60,33.37,5.90,31.33,1013.31,2026.01,2961.12,2954.97,3215.98,349.80,320.06,12.50,0000 0000 0000 0000 000000
2014-03-24 00:49:50,0.02,1.22,0.00,25.47,30.60,33.36,6.02,31.42,1013.33,2026.00,2961.02,2954.94,3215.90,350.13,320.37,12.51,0000 0000 0000 0000 000000
2014-03-24 00:50:50,0.05,1.22,0.00,25.47,30.60,33.34,5.98,31.33,1013.34,2026.02,2960.86,2954.72,3215.70,350.39,320.29,12.51,0000 0000 0000 0000 000000
2014-03-24 00:51:50,0.16,1.22,0.00,25.47,30.60,33.34,5.66,31.21,1013.32,2026.03,2960.42,2954.38,3215.32,348.79,319.45,12.52,0000 0000 0000 0000 000000
2014-03-24 00:52:50,0.19,1.22,0.00,25.47,30.60,33.34,6.01,31.54,1013.31,2026.03,2960.17,2954.15,3215.13,350.73,320.99,12.52,0000 0000 0000 0000 000000
2014-03-24 00:53:51,0.11,1.22,0.00,25.47,30.60,33.34,5.98,31.58,1013.29,2026.03,2960.06,2954.05,3215.05,349.42,319.70,12.53,0000 0000 0000 0000 000000
2014-03-24 00:54:51,0.02,1.22,0.00,25.48,30.60,33.34,6.14,31.58,1013.36,2026.02,2960.01,2954.02,3215.01,350.78,320.94,12.54,0000 0000 0000 0000 000000
2014-03-24 00:55:51,0.01,1.22,0.00,25.50,30.60,33.34,5.96,31.63,1013.41,2026.07,2960.00,2954.00,3215.00,349.32,319.62,12.54,0000 0000 0000 0000 000000
2014-03-24 00:56:52,0.05,1.22,0.00,25.50,30.60,33.35,6.02,31.50,1013.42,2026.06,2959.89,2953.99,3215.00,350.08,320.41,12.55,0000 0000 0000 0000 000000
2014-03-24 00:57:52,0.01,1.22,0.00,25.50,30.60,33.37,6.07,31.79,1013.38,2026.04,2959.79,2953.97,3214.96,350.99,320.77,12.55,0000 0000 0000 0000 000000
2014-03-24 00:58:52,0.00,1.22,0.00,25.50,30.60,33.38,5.89,31.50,1013.30,2026.02,2959.79,2953.97,3214.85,350.56,320.82,12.56,0000 0000 0000 0000 000000
2014-03-24 00:59:52,0.00,1.22,0.00,25.50,30.60,33.36,5.95,31.46,1013.26,2026.00,2959.71,2953.95,3214.53,349.92,320.13,12.57,0000 0000 0000 0000 000000
2014-03-24 01:00:53,0.06,1.22,0.00,25.50,30.60,33.34,5.94,31.54,1013.24,2026.01,2959.36,2953.82,3214.33,350.29,320.76,12.57,0000 0000 0000 0000 000000
2014-03-24 01:01:53,0.13,1.22,0.00,25.49,30.60,33.34,6.02,31.58,1013.23,2026.04,2959.13,2953.50,3214.17,350.24,320.25,12.58,0000 0000 0000 0000 000000
2014-03-24 01:02:53,0.14,1.22,0.00,25.49,30.60,33.35,5.97,31.42,1013.23,2026.04,2959.05,2953.28,3214.08,348.93,319.24,12.58,0000 0000 0000 0000 000000
2014-03-24 01:03:53,0.06,1.23,0.00,25.49,30.60,33.35,5.82,31.63,1013.24,2026.02,2958.98,2953.12,3214.03,349.56,319.80,12.59,0000 0000 0000 0000 000000
2014-03-24 01:04:54,0.05,1.23,0.00,25.49,30.60,33.34,5.94,31.71,1013.24,2026.01,2958.73,2953.05,3214.01,349.45,319.69,12.59,0000 0000 0000 0000 000000
2014-03-24 01:05:54,0.06,1.23,0.00,25.49,30.60,33.36,5.98,31.67,1013.29,2026.02,2958.38,2953.01,3214.00,349.98,320.19,12.60,0000 0000 0000 0000 000000
2014-03-24 01:06:54,0.07,1.23,0.00,25.50,30.61,33.36,6.02,31.25,1013.30,2026.03,2958.18,2953.00,3214.00,350.96,321.00,12.61,0000 0000 0000 0000 000000
2014-03-24 01:07:55,0.02,1.23,0.00,25.50,30.61,33.36,6.02,31.67,1013.44,2026.05,2958.07,2953.00,3213.96,350.26,320.49,12.61,0000 0000 0000 0000 000000
2014-03-24 01:08:55,0.04,1.23,0.00,25.51,30.62,33.35,5.97,31.54,1013.47,2026.03,2958.03,2953.00,3213.85,350.00,320.25,12.62,0000 0000 0000 0000 000000
2014-03-24 01:09:55,0.01,1.23,0.00,25.52,30.62,33.37,6.03,31.63,1013.51,2026.01,2958.01,2952.96,3213.49,350.18,320.60,12.62,0000 0000 0000 0000 000000
2014-03-24 01:10:55,0.04,1.23,0.00,25.52,30.62,33.37,5.91,31.17,1013.54,2026.02,2958.00,2952.83,3213.24,349.86,320.15,12.63,0000 0000 0000 0000 000000
2014-03-24 01:11:55,0.08,1.23,0.00,25.52,30.62,33.35,6.05,31.54,1013.55,2026.00,2958.00,2952.47,3213.09,350.68,320.75,12.64,0000 0000 0000 0000 000000
2014-03-24 01:12:56,0.09,1.23,0.00,25.52,30.62,33.37,6.13,31.50,1013.55,2026.01,2957.99,2952.32,3213.03,349.87,320.14,12.64,0000 0000 0000 0000 000000
2014-03-24 01:13:56,0.06,1.23,0.00,25.52,30.62,33.38,5.88,31.75,1013.48,2026.04,2957.62,2952.15,3213.01,348.72,319.07,12.65,0000 0000 0000 0000 000000
2014-03-24 01:14:56,0.12,1.23,0.00,25.52,30.62,33.38,5.92,31.67,1013.40,2026.02,2957.23,2952.05,3213.00,349.62,319.87,12.65,0000 0000 0000 0000 000000
2014-03-24 01:15:56,0.08,1.23,0.00,25.52,30.62,33.33,5.94,31.58,1013.32,2026.03,2957.08,2952.02,3212.97,350.38,320.86,12.66,0000 0000 0000 0000 000000
2014-03-24 01:16:56,0.02,1.23,0.00,25.53,30.62,33.30,5.88,31.42,1013.29,2026.01,2957.02,2952.00,3212.83,350.00,320.18,12.66,0000 0000 0000 0000 000000
2014-03-24 01:17:57,0.01,1.23,0.00,25.54,30.62,33.33,5.91,31.58,1013.36,2026.00,2956.98,2951.98,3212.68,349.88,320.07,12.67,0000 0000 0000 0000 000000
2014-03-24 01:18:57,0.04,1.23,0.00,25.55,30.62,33.36,5.90,31.54,1013.34,2026.01,2956.95,2951.94,3212.33,349.73,319.92,12.68,0000 0000 0000 0000 000000
2014-03-24 01:19:57,0.06,1.23,0.00,25.55,30.62,33.34,5.94,31.50,1013.36,2026.00,2956.84,2951.91,3212.14,349.66,319.98,12.68,0000 0000 0000 0000 000000
2014-03-24 01:20:57,0.05,1.23,0.00,25.55,30.63,33.32,5.83,31.33,1013.43,2026.01,2956.73,2951.76,3212.06,349.57,319.55,12.69,0000 0000 0000 0000 000000
2014-03-24 01:21:58,0.07,1.23,0.00,25.55,30.63,33.35,5.91,31.67,1013.51,2026.00,2956.60,2951.56,3212.02,349.87,319.84,12.69,0000 0000 0000 0000 000000
2014-03-24 01:22:58,0.08,1.23,0.00,25.55,30.63,33.40,5.83,31.50,1013.55,2026.01,2956.45,2951.31,3212.00,349.20,319.46,12.70,0000 0000 0000 0000 000000
2014-03-24 01:23:58,0.09,1.23,0.00,25.55,30.64,33.42,5.97,31.67,1013.60,2026.00,2956.25,2951.15,3212.00,350.30,320.31,12.71,0000 0000 0000 0000 000000
2014-03-24 01:24:58,0.06,1.23,0.00,25.55,30.65,33.42,6.02,31.63,1013.59,2026.00,2956.09,2951.07,3211.99,349.62,320.00,12.71,0000 0000 0000 0000 000000
2014-03-24 01:25:58,0.03,1.23,0.00,25.55,30.65,33.41,6.02,31.67,1013.58,2026.00,2956.03,2951.03,3211.94,350.36,320.60,12.72,0000 0000 0000 0000 000000
2014-03-24 01:26:58,0.02,1.23,0.00,25.54,30.65,33.40,5.94,31.63,1013.52,2026.00,2956.01,2951.01,3211.87,350.04,320.27,12.72,0000 0000 0000 0000 000000
2014-03-24 01:27:59,0.02,1.23,0.00,25.54,30.65,33.43,5.98,31.50,1013.52,2026.00,2955.87,2951.00,3211.66,350.20,320.42,12.73,0000 0000 0000 0000 000000
2014-03-24 01:28:59,0.05,1.23,0.00,25.54,30.65,33.43,5.94,31.63,1013.46,2026.00,2955.40,2950.99,3211.33,349.37,319.63,12.74,0000 0000 0000 0000 000000
2014-03-24 01:29:59,0.13,1.23,0.00,25.55,30.65,33.41,5.80,31.71,1013.39,2026.00,2955.14,2950.75,3211.12,349.78,319.99,12.74,0000 0000 0000 0000 000000
2014-03-24 01:31:00,0.13,1.24,0.00,25.55,30.65,33.40,5.94,31.71,1013.32,2026.00,2955.04,2950.42,3211.04,349.96,320.13,12.75,0000 0000 0000 0000 000000
2014-03-24 01:32:00,0.10,1.24,0.00,25.55,30.65,33.40,5.96,31.71,1013.36,2026.00,2954.97,2950.22,3211.00,349.92,320.11,12.75,0000 0000 0000 0000 000000
2014-03-24 01:33:00,0.05,1.24,0.00,25.56,30.65,33.39,6.03,31.71,1013.30,2026.00,2954.67,2950.08,3210.99,349.29,319.59,12.76,0000 0000 0000 0000 000000
2014-03-24 01:34:00,0.09,1.24,0.00,25.57,30.65,33.40,5.93,31.46,1013.33,2026.00,2954.30,2950.04,3210.99,349.81,319.96,12.76,0000 0000 0000 0000 000000
2014-03-24 01:35:01,0.06,1.24,0.00,25.57,30.65,33.42,5.89,31.54,1013.34,2026.00,2954.12,2950.01,3210.92,350.16,320.34,12.77,0000 0000 0000 0000 000000
2014-03-24 01:36:01,0.04,1.24,0.00,25.57,30.65,33.41,5.98,31.63,1013.30,2026.00,2954.04,2950.00,3210.80,349.79,319.94,12.78,0000 0000 0000 0000 000000
2014-03-24 01:37:01,0.02,1.24,0.00,25.57,30.66,33.40,5.89,31.54,1013.37,2026.00,2954.01,2949.99,3210.58,349.84,320.01,12.78,0000 0000 0000 0000 000000
2014-03-24 01:38:01,0.04,1.24,0.00,25.57,30.67,33.42,5.91,31.54,1013.39,2026.00,2953.97,2949.97,3210.27,349.69,319.86,12.79,0000 0000 0000 0000 000000
2014-03-24 01:39:01,0.05,1.24,0.00,25.57,30.67,33.45,5.97,31.67,1013.32,2026.00,2953.81,2949.92,3210.11,350.70,320.43,12.79,0000 0000 0000 0000 000000
2014-03-24 01:40:02,0.06,1.24,0.00,25.57,30.67,33.44,5.95,31.58,1013.29,2026.00,2953.40,2949.57,3210.04,349.85,320.17,12.80,0000 0000 0000 0000 000000
2014-03-24 01:41:02,0.18,1.24,0.00,25.57,30.67,33.39,6.06,31.63,1013.27,2026.00,2953.17,2949.27,3210.01,350.33,320.06,12.81,0000 0000 0000 0000 000000
2014-03-24 01:42:02,0.09,1.24,0.00,25.57,30.67,33.40,5.98,31.38,1013.26,2026.00,2953.08,2949.16,3210.00,350.56,320.63,12.81,0000 0000 0000 0000 000000
2014-03-24 01:43:02,0.04,1.24,0.00,25.57,30.67,33.39,5.97,31.25,1013.30,2026.00,2953.08,2949.08,3209.97,349.97,320.10,12.82,0000 0000 0000 0000 000000
2014-03-24 01:44:02,0.00,1.24,0.00,25.57,30.67,33.42,5.82,31.25,1013.28,2026.00,2953.08,2949.05,3209.81,349.64,319.80,12.82,0000 0000 0000 0000 000000
2014-03-24 01:45:02,0.04,1.24,0.00,25.56,30.67,33.43,6.00,31.67,1013.29,2026.00,2953.03,2949.02,3209.57,350.00,319.61,12.83,0000 0000 0000 0000 000000
2014-03-24 01:46:03,0.04,1.24,0.00,25.57,30.67,33.41,5.90,31.33,1013.26,2026.00,2953.00,2949.00,3209.27,349.77,319.80,12.83,0000 0000 0000 0000 000000
2014-03-24 01:47:03,0.05,1.24,0.00,25.57,30.67,33.41,5.94,31.67,1013.26,2026.00,2952.87,2949.00,3209.11,349.50,320.02,12.84,0000 0000 0000 0000 000000
2014-03-24 01:48:03,0.03,1.24,0.00,25.57,30.67,33.41,5.93,31.25,1013.26,2026.00,2952.43,2948.93,3209.04,350.01,319.83,12.85,0000 0000 0000 0000 000000
2014-03-24 01:49:03,0.10,1.24,0.00,25.57,30.67,33.43,5.93,31.29,1013.25,2026.00,2952.16,2948.79,3209.01,350.54,320.64,12.85,0000 0000 0000 0000 000000
2014-03-24 01:50:04,0.08,1.24,0.00,25.59,30.67,33.45,5.99,31.54,1013.24,2026.00,2952.06,2948.63,3209.00,349.48,319.62,12.86,0000 0000 0000 0000 000000
2014-03-24 01:51:04,0.04,1.24,0.00,25.60,30.68,33.44,5.98,31.29,1013.24,2026.00,2952.02,2948.41,3209.00,349.88,319.98,12.86,0000 0000 0000 0000 000000
2014-03-24 01:52:04,0.06,1.24,0.00,25.60,30.68,33.41,5.93,31.54,1013.23,2026.00,2952.00,2948.24,3208.98,349.65,320.01,12.87,0000 0000 0000 0000 000000
2014-03-24 01:53:04,0.05,1.24,0.00,25.61,30.69,33.42,6.13,31.42,1013.25,2026.00,2951.98,2948.14,3208.95,351.34,321.29,12.88,0000 0000 0000 0000 000000
2014-03-24 01:54:05,0.02,1.24,0.00,25.62,30.69,33.44,6.07,31.63,1013.27,2026.00,2951.81,2948.08,3208.71,350.25,320.29,12.88,0000 0000 0000 0000 000000
2014-03-24 01:55:05,0.08,1.24,0.00,25.62,30.70,33.43,5.88,31.63,1013.24,2026.00,2951.44,2948.03,3208.34,349.20,319.33,12.89,0000 0000 0000 0000 000000
2014-03-24 01:56:05,0.12,1.24,0.00,25.62,30.70,33.44,5.90,31.54,1013.22,2026.00,2951.17,2948.01,3208.15,349.82,319.75,12.89,0000 0000 0000 0000 000000
2014-03-24 01:57:05,0.07,1.25,0.00,25.62,30.70,33.46,6.07,31.50,1013.24,2026.00,2951.06,2947.98,3208.05,349.88,319.70,12.90,0000 0000 0000 0000 000000
2014-03-24 01:58:06,0.03,1.25,0.00,25.62,30.70,33.44,6.00,31.63,1013.27,2026.00,2951.02,2947.94,3208.02,350.89,320.88,12.90,0000 0000 0000 0000 000000
2014-03-24 01:59:06,0.02,1.25,0.00,25.62,30.70,33.44,5.98,31.42,1013.25,2026.00,2950.97,2947.84,3208.00,350.80,320.78,12.91,0000 0000 0000 0000 000000
2014-03-24 02:00:06,0.03,1.25,0.00,25.64,30.70,33.37,6.00,31.63,1013.24,2026.00,2950.91,2947.70,3207.99,349.54,319.86,12.92,0000 0000 0000 0000 000000
2014-03-24 02:01:06,0.04,1.25,0.00,25.64,30.70,33.36,5.89,31.58,1013.22,2026.00,2950.64,2947.35,3207.91,349.92,319.90,12.92,0000 0000 0000 0000 000000
2014-03-24 02:02:07,0.14,1.25,0.00,25.65,30.70,33.41,6.03,31.42,1013.23,2026.00,2950.32,2947.13,3207.67,350.49,320.47,12.93,0000 0000 0000 0000 000000
2014-03-24 02:03:07,0.13,1.25,0.00,25.65,30.70,33.44,5.90,31.67,1013.22,2026.00,2950.16,2947.06,3207.35,349.72,319.77,12.93,0000 0000 0000 0000 000000
2014-03-24 02:04:07,0.09,1.25,0.00,25.65,30.70,33.41,6.03,31.46,1013.22,2026.00,2950.07,2947.02,3207.18,350.12,320.05,12.94,0000 0000 0000 0000 000000
2014-03-24 02:05:07,0.04,1.25,0.00,25.65,30.70,33.40,5.78,31.58,1013.23,2026.00,2950.02,2947.00,3207.08,350.94,320.77,12.95,0000 0000 0000 0000 000000
2014-03-24 02:06:08,0.02,1.25,0.00,25.65,30.71,33.44,5.88,31.54,1013.24,2026.00,2950.00,2947.00,3207.03,349.93,320.09,12.95,0000 0000 0000 0000 000000
2014-03-24 02:07:08,0.00,1.25,0.00,25.65,30.71,33.43,6.00,31.50,1013.21,2026.00,2949.99,2946.99,3207.00,349.84,319.76,12.96,0000 0000 0000 0000 000000
2014-03-24 02:08:08,0.00,1.25,0.00,25.67,30.72,33.41,6.03,31.46,1013.21,2026.00,2949.96,2946.96,3206.99,350.17,320.21,12.96,0000 0000 0000 0000 000000
2014-03-24 02:09:08,0.01,1.25,0.00,25.67,30.72,33.43,5.78,31.42,1013.24,2026.00,2949.89,2946.82,3206.96,349.25,319.16,12.97,0000 0000 0000 0000 000000
2014-03-24 02:10:08,0.05,1.25,0.00,25.67,30.72,33.43,5.85,31.33,1013.25,2026.00,2949.62,2946.62,3206.91,350.57,320.73,12.97,0000 0000 0000 0000 000000
2014-03-24 02:11:09,0.09,1.25,0.00,25.67,30.72,33.41,6.08,31.38,1013.22,2026.00,2949.27,2946.34,3206.60,351.00,320.91,12.98,0000 0000 0000 0000 000000
2014-03-24 02:12:09,0.18,1.25,0.00,25.67,30.72,33.45,5.89,31.50,1013.21,2026.00,2949.10,2946.15,3206.30,350.23,320.20,12.99,0000 0000 0000 0000 000000
2014-03-24 02:13:09,0.10,1.25,0.00,25.69,30.72,33.43,6.08,31.63,1013.20,2026.00,2949.03,2946.05,3206.13,351.05,320.93,12.99,0000 0000 0000 0000 000000
2014-03-24 02:14:09,0.05,1.25,0.00,25.70,30.72,33.42,5.94,31.33,1013.20,2026.00,2948.96,2946.01,3206.05,348.96,319.01,13.00,0000 0000 0000 0000 000000
2014-03-24 02:15:09,0.03,1.25,0.00,25.70,30.72,33.44,5.94,31.58,1013.20,2025.99,2948.66,2945.99,3206.01,350.35,320.28,13.00,0000 0000 0000 0000 000000
2014-03-24 02:16:09,0.05,1.25,0.00,25.70,30.72,33.43,5.95,31.50,1013.20,2025.98,2948.28,2945.98,3205.99,350.29,320.22,13.01,0000 0000 0000 0000 000000
2014-03-24 02:17:10,0.04,1.25,0.00,25.70,30.72,33.45,6.08,31.67,1013.20,2025.98,2948.11,2945.91,3205.97,350.55,320.63,13.02,0000 0000 0000 0000 000000
2014-03-24 02:18:10,0.05,1.25,0.00,25.71,30.72,33.47,5.93,31.58,1013.17,2025.99,2948.04,2945.68,3205.83,350.07,319.95,13.02,0000 0000 0000 0000 000000
2014-03-24 02:19:10,0.11,1.25,0.00,25.72,30.73,33.46,5.87,31.50,1013.05,2025.98,2948.01,2945.42,3205.54,349.83,319.56,13.03,0000 0000 0000 0000 000000
2014-03-24 02:20:11,0.09,1.25,0.00,25.72,30.74,33.46,6.07,31.46,1013.03,2025.97,2948.00,2945.22,3205.25,350.70,320.52,13.03,0000 0000 0000 0000 000000
2014-03-24 02:21:11,0.08,1.25,0.00,25.72,30.74,33.45,5.88,31.38,1012.96,2025.97,2947.97,2945.08,3205.09,349.64,319.56,13.04,0000 0000 0000 0000 000000
2014-03-24 02:22:11,0.05,1.26,0.00,25.73,30.75,33.43,5.78,31.46,1012.92,2025.97,2947.86,2945.03,3205.04,349.21,319.24,13.05,0000 0000 0000 0000 000000
2014-03-24 02:23:11,0.03,1.26,0.00,25.74,30.75,33.40,5.96,31.38,1012.99,2025.97,2947.47,2945.01,3205.01,350.53,320.51,13.05,0000 0000 0000 0000 000000
2014-03-24 02:24:12,0.07,1.26,0.00,25.75,30.75,33.37,5.91,31.58,1012.99,2025.95,2947.19,2945.00,3205.00,349.59,319.42,13.06,0000 0000 0000 0000 000000
2014-03-24 02:25:12,0.02,1.26,0.00,25.75,30.75,33.39,5.84,31.33,1013.08,2025.97,2947.07,2944.99,3205.00,349.58,319.06,13.06,0000 0000 0000 0000 000000
2014-03-24 02:26:12,0.04,1.26,0.00,25.76,30.75,33.39,5.78,31.46,1013.11,2025.97,2947.01,2944.98,3204.95,349.13,319.08,13.07,0000 0000 0000 0000 000000
2014-03-24 02:27:12,0.03,1.26,0.00,25.77,30.75,33.40,5.75,31.17,1013.17,2025.97,2946.81,2944.74,3204.72,350.07,319.94,13.07,0000 0000 0000 0000 000000
2014-03-24 02:28:13,0.11,1.26,0.00,25.77,30.75,33.41,6.05,31.46,1013.18,2025.93,2946.42,2944.42,3204.41,350.13,319.87,13.08,0000 0000 0000 0000 000000
2014-03-24 02:29:13,0.13,1.26,0.00,25.77,30.75,33.41,5.87,31.33,1013.18,2025.92,2946.18,2944.19,3204.19,349.18,319.03,13.09,0000 0000 0000 0000 000000
2014-03-24 02:30:13,0.14,1.26,0.00,25.77,30.75,33.38,5.79,31.46,1013.19,2025.94,2946.07,2944.07,3204.07,349.57,318.97,13.09,0000 0000 0000 0000 000000
2014-03-24 02:31:13,0.05,1.26,0.00,25.77,30.75,33.41,5.92,31.54,1013.19,2025.90,2945.99,2944.03,3204.02,350.61,320.44,13.10,0000 0000 0000 0000 000000
2014-03-24 02:32:14,0.00,1.26,0.00,25.77,30.76,33.46,5.94,31.54,1013.17,2025.91,2945.89,2944.00,3204.00,349.47,319.39,13.10,0000 0000 0000 0000 000000
2014-03-24 02:33:14,0.05,1.26,0.00,25.77,30.77,33.42,5.78,31.46,1013.20,2025.92,2945.82,2943.99,3203.99,349.54,319.46,13.11,0000 0000 0000 0000 000000
2014-03-24 02:34:14,0.02,1.26,0.00,25.77,30.77,33.41,6.07,31.58,1013.18,2025.91,2945.46,2943.99,3203.94,350.44,320.28,13.12,0000 0000 0000 0000 000000
2014-03-24 02:35:14,0.05,1.26,0.00,25.78,30.77,33.42,5.87,31.58,1013.19,2025.92,2945.18,2943.97,3203.69,349.36,319.28,13.12,0000 0000 0000 0000 000000
2014-03-24 02:36:15,0.09,1.26,0.00,25.80,30.77,33.45,6.13,31.63,1013.19,2025.93,2945.06,2943.87,3203.38,351.16,320.92,13.13,0000 0000 0000 0000 000000